AirNav   Everest Fuels
 
 608 users online  

Y47 Oakland Southwest Airport
New Hudson, Michigan, USA

GOING TO NEW HUDSON?


FAA INFORMATION EFFECTIVE 25 MARCH 2021

Location

FAA Identifier: Y47
Lat/Long: 42-30-11.2460N 083-37-25.3250W
42-30.187433N 083-37.422083W
42.5031239,-83.6237014
(estimated)
Elevation: 926.1 ft. / 282 m (estimated)
Variation: 07W (2020)
From city: 1 mile SW of NEW HUDSON, MI
Time zone: UTC -4 (UTC -5 during Standard Time)
Zip code: 48165

Airport Operations

Airport use: Open to the public
Activation date: 10/1946
Control tower: no
ARTCC: CLEVELAND CENTER
FSS: LANSING FLIGHT SERVICE STATION
NOTAMs facility: LAN (NOTAM-D service available)
Attendance: MON-FRI 0830-1700, ALL SAT-SUN ON CALL
Wind indicator: lighted
Segmented circle: yes
Lights: ACTVT LIRL RWY 08/26 - CTAF.
Beacon: white-green (lighted land airport)
Operates sunset to sunrise.

Airport Communications

CTAF/UNICOM: 122.7
DETROIT APPROACH: 132.35
DETROIT DEPARTURE: 132.35
WX ASOS at PTK (13 nm NE): 125.025 (248-886-8551)
WX ASOS at YIP (16 nm S): PHONE 734-961-6843
WX AWOS-3 at OZW (18 nm NW): 118.875 (517-546-4450)
WX ASOS at ARB (18 nm S): PHONE 734-668-7173
WX AWOS-3 at VLL (20 nm E): 119.475 (248-288-4649)

Nearby radio navigation aids

VOR radial/distance  VOR name  Freq  Var
SVMr350/5.8SALEM VORTAC114.3003W
DXOr333/20.8DETROIT VOR/DME113.4006W
CRLr348/28.3CARLETON VOR/DME115.7003W
FNTr175/28.3FLINT VORTAC116.9006W

 
NDB name  Hdg/Dist  Freq  Var  ID
TECUMSEH028/30.523906WTCU - -.-. ..-
GROSSE ILE326/31.941907WRYS .-. -.-- ...

Airport Services

Fuel available: 100LL
Parking: hangars and tiedowns
Bottled oxygen: NONE
Bulk oxygen: NONE

Runway Information

Runway 8/26

Dimensions: 3128 x 40 ft. / 953 x 12 m
Surface: asphalt, in fair condition
Runway edge lights: low intensity
RUNWAY 8  RUNWAY 26
Latitude: 42-30.104963N42-30.269903N
Longitude: 083-37.751758W083-37.092397W
Elevation: 920.9 ft.926.1 ft.
Traffic pattern: leftleft
Runway heading: 078 magnetic, 071 true258 magnetic, 251 true
Displaced threshold: 867 ft.864 ft.
Markings: basic, in fair conditionbasic, in fair condition
Visual slope indicator: 2-box VASI on right (4.00 degrees glide path)
VASI U/S INDEFLY.
2-box VASI on left (4.00 degrees glide path)
VASI U/S INDEFLY.
Runway end identifier lights: nono
Touchdown point: yes, no lightsyes, no lights
Obstructions: 20 ft. brush, 15 ft. from runway
-4 FT DITCH, 40 FT DIST FM THR; +5-15 FT BRUSH, SCATTERED.
66 ft. trees, 201 ft. from runway, 145 ft. right of centerline
20 FT BRUSH, 84 FT DIST, 110 FT L.

Airport Ownership and Management from official FAA records

Ownership: Publicly-owned
Owner: OAKLAND COUNTY
PO BOX 329
NEW HUDSON, MI 48165-0329
Phone 248-437-2333
Manager: CHERYL BUSH
57751 PONTIAC TRL
NEW HUDSON, MI 48165-8700
Phone 248-437-2333

Airport Operational Statistics

Aircraft based on the field: 38
Single engine airplanes: 36
Multi engine airplanes: 1
Helicopters: 1
    
Aircraft operations: avg 36/day *
50% transient general aviation
50% local general aviation
* for 12-month period ending 31 December 2017

Additional Remarks

TREES & BRUSH IN PRIMARY SFC 70-120 FT L & R.
FOR CD CTC DETROIT APCH AT 800-499-8181.
CRANE 2874 FT E APCH END RWY 26 (120FT AGL) FLAGGED NOT LGTD.
CRANE 2874 FT E APCH END RWY 26 (120FT AGL) FLAGGED NOT LGTD.
DEER & LRG BIRDS ON & INVOF ARPT.

Instrument Procedures

NOTE: All procedures below are presented as PDF files. If you need a reader for these files, you should download the free Adobe Reader.

NOT FOR NAVIGATION. Please procure official charts for flight.
FAA instrument procedures published for use from 25 March 2021 at 0901Z to 22 April 2021 at 0900z.

 
IAPs - Instrument Approach Procedures
VOR OR GPS-A   download (161KB)
NOTE: Special Take-Off Minimums/Departure Procedures apply   download (255KB)

Other nearby airports with instrument procedures:

1D2 - Canton-Plymouth-Mettetal Airport (12 nm SE)
KPTK - Oakland County International Airport (13 nm NE)
KYIP - Willow Run Airport (16 nm S)
KOZW - Livingston County Spencer J Hardy Airport (18 nm NW)
KARB - Ann Arbor Municipal Airport (18 nm S)
9G2 - Price's Airport (19 nm N)
KVLL - Oakland/Troy Airport (20 nm E)
 
Loc | Ops | Rwys | IFR | FBO | Links
Com | Nav | Svcs | Stats | Notes
Area around Y47 (Oakland Southwest Airport)
 
Road maps at: MapQuest Bing Google
 
Aerial photo
WARNING: Photo may not be current or correct
Aerial photo of Y47 (Oakland Southwest Airport)
Photo by Jeff Franks
Photo taken 13-Jun-2013
looking south.

Do you have a better or more recent aerial photo of Oakland Southwest Airport that you would like to share? If so, please send us your photo.

 
Sectional chart

 
Airport distance calculator
Flying to Oakland Southwest Airport? Find the distance to fly.

From to Y47

Sunrise and sunset
Times for 20-Apr-2021
 Local
(UTC-4)
 Zulu
(UTC)
Morning civil twilight06:1710:17
Sunrise06:4610:46
Sunset20:2000:20
Evening civil twilight20:5000:50

Current date and time
Zulu (UTC)  20-Apr-2021 05:04:41
Local (UTC-4)  20-Apr-2021 01:04:41
 
METAR
KPTK 
13nm NE 
200453Z AUTO 28012KT 10SM SCT110 04/M03 A2989 RMK AO2 SLP123 T00391028 401670039
KOZW 
17nm NW 
200455Z AUTO 24003KT 10SM SCT110 02/M02 A2991 RMK AO2 T00181022
KYIP 
17nm S 
200453Z 28009KT 10SM OVC100 07/M03 A2993 RMK AO2 SLP131 T00671028 402060061
KARB 
18nm S 
734-668-7173
200453Z AUTO 28007KT 10SM OVC100 04/M03 A2992 RMK AO2 SLP134 T00391028 401830017
KVLL 
20nm E 
200455Z AUTO 27008KT 10SM OVC110 05/M03 A2992 RMK AO2 T00521029
KDTW 
21nm SE 
200453Z 28008KT 10SM SCT035 BKN065 OVC095 05/M02 A2993 RMK AO2 SLP134 T00501022 401830050
TAF
KPTK 
13nm NE 
192100Z 1921/2018 27016G28KT P6SM -SHRA SCT018 BKN025 OVC040 FM192300 29012G20KT P6SM BKN035 OVC050 FM200600 30010KT P6SM BKN100 FM201500 31007KT P6SM OVC080
KYIP 
17nm S 
191722Z 1918/2018 24017G28KT P6SM SCT060 OVC100 FM192000 27014G22KT P6SM -SHRA SCT035 OVC050 FM192300 29012G20KT P6SM BKN035 OVC050 FM200600 30010KT P6SM BKN100 FM201500 31007KT P6SM OVC080
NOTAMs
Click for the latest NOTAMs
NOTAMs are issued by the DoD/FAA and will open in a separate window not controlled by AirNav.

 

 
 

Would you like to see your business listed on this page?

 If your business provides an interesting product or service to pilots, flight crews, aircraft, or users of the Oakland Southwest Airport, you should consider listing it here.  To start the listing process, click on the button below
 
Add a business
 

Other Pages about Oakland Southwest Airport

www.oakgov.com/...
Page from the Michigan Airport Directory (PDF)
 
Update a link
 
Copyright © AirNav, LLC. All rights reserved. Privacy Policy  Contact